Location: Boitzum
(52.1496°N, 9.6943°E)
Time: 05:08:01
(UTC+00:00)

Cosmos 2074 Rocket - Pass Details

Date: 27 April 2026
Orbit: 967 x 984 km, 82.9° (Epoch: 15 May)

Event Time Altitude Azimuth Distance (km) Brightness Sun altitude
Rises 01:55:38 0° 356° (N) 3,706 7.8 -15.9°
Reaches altitude 10° 01:59:25 10° 18° (NNE) 2,754 7.5 -15.5°
Maximum altitude 02:03:01 15° 53° (NE) 2,370 7.2 -15.1°
Drops below altitude 10° 02:06:36 10° 88° (E) 2,743 7.0 -14.8°
Sets 02:10:20 0° 110° (ESE) 3,685 7.3 -14.4°
